Miscellaneous Local Product
Issued by NWS Hastings, NE

Home | Current Version | Previous Version | Graphics & Text | Print | Product List | Glossary On
Versions: 1 2 3 4 5 6 7 8 9 10 11 12 13 14 15 16 17 18 19 20 21 22 23 24 25 26 27 28 29 30 31 32 33 34 35 36 37 38 39 40 41 42 43 44 45 46 47 48 49 50
000
AXUS43 KGID 290102
MISGRI

GID CWA HOURLY WEATHER ROUNDUP
NATIONAL WEATHER SERVICE HASTINGS NE
800 PM CDT THU AUG 28 2014

NOTE: "FAIR" INDICATES FEW OR NO CLOUDS BELOW 12,000 FEET WITH NO
SIGNIFICANT WEATHER AND/OR OBSTRUCTIONS TO VISIBILITY.

...SOUTH CENTRAL NEBRASKA...

CITY           SKY/WX    TMP DP  RH WIND       PRES   REMARKS
GRAND ISLAND   CLOUDY    78  70  76 S7        29.83S
HASTINGS       MOCLDY    79  68  69 S6        29.83S
KEARNEY        PTCLDY    75  66  73 S8        29.84S
ORD            CLEAR     76  67  73 S6        29.81S
YORK           MOCLDY    75 N/A N/A S6        29.83S
AURORA         CLOUDY    76  73  90 S3        29.82F
LEXINGTON      PTCLDY    77  69  75 SE7       29.85S
HOLDREGE       PTCLDY    76  65  69 S3        29.85S
HEBRON         MOCLDY    75  65  69 S6        29.83F

...NEBRASKA PANHANDLE...

CITY           SKY/WX    TMP DP  RH WIND       PRES   REMARKS
CHADRON        CLOUDY    66  57  72 SW5       29.95F
ALLIANCE       CLOUDY    66  53  63 NW10      29.96F
SCOTTSBLUFF    MOCLDY    66  54  65 W7        30.02F
SIDNEY         CLOUDY    65  53  65 NW12      30.04S

...WESTERN AND NORTH CENTRAL NEBRASKA...

CITY           SKY/WX    TMP DP  RH WIND       PRES   REMARKS
VALENTINE      TSTM      65  59  81 S16G22    29.95R
AINSWORTH      TSTM      63  58  83 N23       29.88F
ONEILL         CLOUDY    75  69  80 NW3       29.83R
BROKEN BOW     CLOUDY    74  63  68 N16       29.85R
IMPERIAL       PTCLDY    69  56  62 NW14      29.95S
NORTH PLATTE   PTCLDY    71  59  65 NW14      29.88R
MCCOOK         PTCLDY    72  63  73 W8        29.88R

...EASTERN NEBRASKA...

CITY           SKY/WX    TMP DP  RH WIND       PRES   REMARKS
NORFOLK        MOCLDY    76  70  82 SE5       29.81F
SO SIOUX CITY  CLOUDY    77  72  84 SE6       29.81F
TEKAMAH        MOCLDY    76  72  87 S5        29.82F
COLUMBUS       CLOUDY    75  70  83 SE6       29.83S
ALBION         MOCLDY    76  69  80 SE7       29.82S
OMAHA EPPLEY   CLOUDY    78  71  79 S5        29.81F
OFFUTT AFB     CLOUDY    77  77  99 CALM      29.82F
MILLARD        MOCLDY    77  73  86 CALM      29.82F
LINCOLN        CLOUDY    77  68  73 SE10      29.84S
NEBRASKA CITY  CLOUDY    75  71  86 SW6       29.83F
BEATRICE       CLOUDY    76  70  82 E3        29.84F
FALLS CITY     CLOUDY    79  74  84 CALM      29.82F

...NORTHERN KANSAS...

CITY           SKY/WX    TMP DP  RH WIND       PRES   REMARKS
GOODLAND       PTCLDY    72  59  63 N14       29.99R
HILL CITY      PTCLDY    80  65  59 S3        29.85F
NORTON         PTCLDY    75  59  57 S5        29.85S
SMITH CENTER   CLEAR     70  63  78 E14       29.86R
BELOIT         CLOUDY    75  61  60 NW6       29.84R
HAYS           MOCLDY    81  63  54 W5        29.85F
RUSSELL        CLOUDY    75  66  73 SE21G26   29.85R THUNDER
CONCORDIA      CLOUDY    75  70  84 SW7       29.85R
SALINA         MOCLDY    80  66  62 S14       29.83F
TOPEKA         MOCLDY    87  64  46 S3        29.83R



USA.gov is the U.S. government's official web portal to all federal, state and local government web resources and services.